Location: Fort Wayne
(41.1310°N, 85.1290°W)
Time: 11:24:23
(UTC-04:00)

Courier 1B Rocket - All Passes

Search period start: 07 July 2015 00:00
Search period end: 17 July 2015 00:00
Orbit: 921 x 1202 km, 28.2° (Epoch: 06 July)

Date Brightness Start Highest point End Pass type
(mag) Time Alt. Az. Time Alt. Az. Time Alt. Az.
07 Jul - 00:45:01 10° WSW 00:49:53 18° SSW 00:54:27 10° SSE visible
07 Jul - 18:07:19 10° S 18:10:31 13° SSE 18:13:58 10° SE daylight
07 Jul - 19:57:06 10° SW 20:03:15 26° SSE 20:09:26 10° ESE daylight
07 Jul - 21:49:33 10° WSW 21:56:12 31° S 22:02:40 10° ESE visible
07 Jul - 23:43:17 10° WSW 23:49:03 23° SSW 23:54:31 10° SSE visible
08 Jul - 18:56:43 10° SSW 19:02:19 22° SSE 19:08:04 10° ESE daylight
08 Jul - 20:48:34 10° SW 20:55:13 31° S 21:01:47 10° ESE daylight
08 Jul - 22:41:51 10° WSW 22:48:09 27° SSW 22:54:13 10° SE visible
09 Jul - 00:37:05 10° SW 00:40:49 14° SSW 00:44:14 10° S visible
09 Jul - 17:56:45 10° SSW 18:01:26 18° SSE 18:06:21 10° ESE daylight
09 Jul - 19:47:46 10° SW 19:54:14 29° S 20:00:44 10° ESE daylight
09 Jul - 21:40:37 10° WSW 21:47:12 30° S 21:53:38 10° SE visible
09 Jul - 23:34:52 10° WSW 23:40:00 19° SSW 23:44:51 10° SSE visible
10 Jul - 16:57:33 10° S 17:00:35 13° SSE 17:03:56 10° SE daylight
10 Jul - 18:47:12 10° SW 18:53:17 26° SSE 18:59:31 10° ESE daylight
10 Jul - 20:39:34 10° WSW 20:46:13 31° S 20:52:51 10° ESE daylight
10 Jul - 22:33:13 10° WSW 22:39:07 23° SSW 22:44:49 10° SSE visible
11 Jul - 17:46:55 10° SSW 17:52:22 22° SSE 17:58:03 10° ESE daylight
11 Jul - 19:38:40 10° SW 19:45:14 31° S 19:51:53 10° ESE daylight
11 Jul - 21:31:51 10° WSW 21:38:11 27° SSW 21:44:25 10° SE visible
11 Jul - 23:26:57 10° SW 23:30:55 14° SSW 23:34:36 10° S visible
12 Jul - 16:47:03 10° SSW 16:51:31 17° SSE 16:56:15 10° ESE daylight
12 Jul - 18:37:57 10° SW 18:44:15 29° S 18:50:45 10° ESE daylight
12 Jul - 20:30:41 10° WSW 20:37:13 30° S 20:43:45 10° SE daylight
12 Jul - 22:24:50 10° WSW 22:30:03 19° SSW 22:35:04 10° SSE visible
13 Jul - 15:48:02 10° S 15:50:43 12° SSE 15:53:43 10° SE daylight
13 Jul - 17:37:28 10° SW 17:43:20 26° SSE 17:49:27 10° ESE daylight
13 Jul - 19:29:43 10° WSW 19:36:14 31° S 19:42:52 10° ESE daylight
13 Jul - 21:23:15 10° WSW 21:29:09 23° SSW 21:34:57 10° SSE daylight
14 Jul - 16:37:17 10° SSW 16:42:28 21° SSE 16:47:57 10° ESE daylight
14 Jul - 18:28:55 10° SW 18:35:16 30° S 18:41:50 10° ESE daylight
14 Jul - 20:21:58 10° WSW 20:28:12 27° S 20:34:28 10° SE daylight
14 Jul - 22:16:59 10° SW 22:20:59 14° SSW 22:24:44 10° S visible
15 Jul - 15:37:32 10° SSW 15:41:40 17° SSE 15:46:06 10° ESE daylight
15 Jul - 17:28:18 10° SW 17:34:20 28° S 17:40:40 10° ESE daylight
15 Jul - 19:20:55 10° WSW 19:27:14 29° S 19:33:43 10° SE daylight
15 Jul - 21:14:57 10° WSW 21:20:05 19° SSW 21:25:07 10° SSE daylight
16 Jul - 14:38:44 10° S 14:40:56 12° SSE 14:43:25 10° SE daylight
16 Jul - 16:27:54 10° SW 16:33:27 25° SSE 16:39:20 10° ESE daylight
16 Jul - 18:20:02 10° WSW 18:26:17 30° S 18:32:47 10° SE daylight
16 Jul - 20:13:28 10° WSW 20:19:11 23° SSW 20:24:55 10° SSE daylight
